Location: �perlecques
(50.8057°N, 2.1521°E)
Time: 10:53:19
(UTC+00:00)

Cosmos 1833 Rocket - Pass Details

Date: 09 April 2020
Orbit: 834 x 838 km, 71.0° (Epoch: 27 May)

Event Time Altitude Azimuth Distance (km) Brightness Sun altitude
Exits shadow 20:39:28 25° 96° (E) 1,633 3.7 -18.0°
Drops below altitude 10° 20:43:33 10° 50° (NE) 2,460 5.0 -18.5°
Sets 20:46:22 0° 38° (NE) 3,399 5.9 -18.8°
